Year,Month,Day,Hour,Minute,Value (Times are PST for windspeed in km/hr)
2021,08,07,00,00,7.70
2021,08,07,00,01,6.10
2021,08,07,00,02,9.80
2021,08,07,00,03,10.70
2021,08,07,00,04,10.30
2021,08,07,00,05,9.70
2021,08,07,00,06,9.80
2021,08,07,00,07,8.40
2021,08,07,00,08,5.20
2021,08,07,00,09,3.50
2021,08,07,00,10,5.70
2021,08,07,00,11,7.30
2021,08,07,00,12,6.60
2021,08,07,00,13,4.20
2021,08,07,00,14,6.10
2021,08,07,00,15,4.10
2021,08,07,00,16,5.80
2021,08,07,00,17,5.80
2021,08,07,00,18,4.40
2021,08,07,00,19,5.20
2021,08,07,00,20,5.50
2021,08,07,00,21,5.50
2021,08,07,00,22,3.90
2021,08,07,00,23,5.20
2021,08,07,00,24,5.30
2021,08,07,00,25,5.80
2021,08,07,00,26,5.00
2021,08,07,00,27,4.80
2021,08,07,00,28,4.00
2021,08,07,00,29,3.70
2021,08,07,00,30,3.90
2021,08,07,00,31,3.40
2021,08,07,00,32,4.60
2021,08,07,00,33,3.00
2021,08,07,00,34,4.30
2021,08,07,00,35,4.00
2021,08,07,00,36,4.00
2021,08,07,00,37,4.80
2021,08,07,00,38,4.80
2021,08,07,00,39,4.80
2021,08,07,00,40,5.00
2021,08,07,00,41,6.70
2021,08,07,00,42,6.70
2021,08,07,00,43,7.50
2021,08,07,00,44,10.80
2021,08,07,00,45,10.00
2021,08,07,00,46,9.90
2021,08,07,00,47,8.30
2021,08,07,00,48,7.30
2021,08,07,00,49,9.00
2021,08,07,00,50,8.10
2021,08,07,00,51,7.40
2021,08,07,00,52,6.40
2021,08,07,00,53,4.20
2021,08,07,00,54,4.30
2021,08,07,00,55,3.20
2021,08,07,00,56,5.00
2021,08,07,00,57,6.40
2021,08,07,00,58,6.40
2021,08,07,00,59,6.70
2021,08,07,01,00,7.00
2021,08,07,01,01,8.40
2021,08,07,01,02,7.20
2021,08,07,01,03,8.10
2021,08,07,01,04,7.90
2021,08,07,01,05,9.70
2021,08,07,01,06,8.30
2021,08,07,01,07,8.10
2021,08,07,01,08,9.50
2021,08,07,01,09,8.10
2021,08,07,01,10,7.50
2021,08,07,01,11,8.50
2021,08,07,01,12,7.30
2021,08,07,01,13,6.90
2021,08,07,01,14,6.70
2021,08,07,01,15,7.40
2021,08,07,01,16,6.70
2021,08,07,01,17,6.70
2021,08,07,01,18,5.70
2021,08,07,01,19,5.10
2021,08,07,01,20,4.20
2021,08,07,01,21,3.50
2021,08,07,01,22,2.70
2021,08,07,01,23,1.60
2021,08,07,01,24,2.10
2021,08,07,01,25,2.60
2021,08,07,01,26,2.60
2021,08,07,01,27,3.00
2021,08,07,01,28,3.40
2021,08,07,01,29,3.40
2021,08,07,01,30,2.90
2021,08,07,01,31,3.40
2021,08,07,01,32,4.30
2021,08,07,01,33,4.50
2021,08,07,01,34,3.70
2021,08,07,01,35,4.10
2021,08,07,01,36,5.40
2021,08,07,01,37,6.00
2021,08,07,01,38,6.40
2021,08,07,01,39,7.40
2021,08,07,01,40,7.90
2021,08,07,01,41,9.40
2021,08,07,01,42,9.20
2021,08,07,01,43,7.30
2021,08,07,01,44,7.70
2021,08,07,01,45,7.20
2021,08,07,01,46,7.70
2021,08,07,01,47,7.70
2021,08,07,01,48,8.20
2021,08,07,01,49,9.50
2021,08,07,01,50,8.80
2021,08,07,01,51,7.20
2021,08,07,01,52,6.40
2021,08,07,01,53,6.70
2021,08,07,01,54,7.30
2021,08,07,01,55,6.00
2021,08,07,01,56,4.90
2021,08,07,01,57,4.30
2021,08,07,01,58,5.20
2021,08,07,01,59,4.20
2021,08,07,02,00,3.10
2021,08,07,02,01,4.20
2021,08,07,02,02,4.80
2021,08,07,02,03,8.60
2021,08,07,02,04,7.60
2021,08,07,02,05,8.80
2021,08,07,02,06,10.90
2021,08,07,02,07,10.50
2021,08,07,02,08,8.70
2021,08,07,02,09,7.80
2021,08,07,02,10,6.40
2021,08,07,02,11,6.80
2021,08,07,02,12,6.50
2021,08,07,02,13,6.10
2021,08,07,02,14,5.60
2021,08,07,02,15,5.40
2021,08,07,02,16,5.40
2021,08,07,02,17,6.60
2021,08,07,02,18,7.00
2021,08,07,02,19,6.30
2021,08,07,02,20,7.10
2021,08,07,02,21,6.30
2021,08,07,02,22,5.40
2021,08,07,02,23,6.00
2021,08,07,02,24,6.30
2021,08,07,02,25,6.00
2021,08,07,02,26,6.20
2021,08,07,02,27,5.30
2021,08,07,02,28,4.00
2021,08,07,02,29,4.60
2021,08,07,02,30,5.90
2021,08,07,02,31,5.00
2021,08,07,02,32,4.40
2021,08,07,02,33,4.20
2021,08,07,02,34,3.70
2021,08,07,02,35,3.00
2021,08,07,02,36,5.30
2021,08,07,02,37,6.30
2021,08,07,02,38,5.70
2021,08,07,02,39,5.70
2021,08,07,02,40,6.90
2021,08,07,02,41,9.70
2021,08,07,02,42,10.10
2021,08,07,02,43,7.30
2021,08,07,02,44,8.10
2021,08,07,02,45,7.70
2021,08,07,02,46,8.80
2021,08,07,02,47,8.10
2021,08,07,02,48,8.50
2021,08,07,02,49,8.30
2021,08,07,02,50,8.50
2021,08,07,02,51,7.90
2021,08,07,02,52,8.10
2021,08,07,02,53,9.60
2021,08,07,02,54,9.40
2021,08,07,02,55,11.10
2021,08,07,02,56,11.20
2021,08,07,02,57,11.00
2021,08,07,02,58,12.30
2021,08,07,02,59,11.00
2021,08,07,03,00,11.20
2021,08,07,03,01,11.50
2021,08,07,03,02,11.30
2021,08,07,03,03,10.90
2021,08,07,03,04,13.10
2021,08,07,03,05,12.30
2021,08,07,03,06,12.50
2021,08,07,03,07,13.10
2021,08,07,03,08,12.60
2021,08,07,03,09,11.80
2021,08,07,03,10,13.20
2021,08,07,03,11,12.80
2021,08,07,03,12,12.30
2021,08,07,03,13,11.20
2021,08,07,03,14,10.50
2021,08,07,03,15,10.30
2021,08,07,03,16,6.90
2021,08,07,03,17,7.10
2021,08,07,03,18,9.10
2021,08,07,03,19,8.80
2021,08,07,03,20,9.60
2021,08,07,03,21,9.40
2021,08,07,03,22,7.90
2021,08,07,03,23,7.80
2021,08,07,03,24,10.40
2021,08,07,03,25,7.90
2021,08,07,03,26,7.80
2021,08,07,03,27,6.70
2021,08,07,03,28,9.10
2021,08,07,03,29,8.40
2021,08,07,03,30,8.30
2021,08,07,03,31,7.80
2021,08,07,03,32,8.50
2021,08,07,03,33,9.10
2021,08,07,03,34,8.00
2021,08,07,03,35,7.40
2021,08,07,03,36,10.00
2021,08,07,03,37,7.60
2021,08,07,03,38,7.10
2021,08,07,03,39,8.30
2021,08,07,03,40,7.40
2021,08,07,03,41,7.10
2021,08,07,03,42,9.40
2021,08,07,03,43,10.60
2021,08,07,03,44,10.00
2021,08,07,03,45,11.00
2021,08,07,03,46,10.60
2021,08,07,03,47,11.00
2021,08,07,03,48,9.20
2021,08,07,03,49,9.80
2021,08,07,03,50,10.90
2021,08,07,03,51,9.40
2021,08,07,03,52,8.40
2021,08,07,03,53,10.30
2021,08,07,03,54,8.50
2021,08,07,03,55,7.70
2021,08,07,03,56,11.30
2021,08,07,03,57,13.10
2021,08,07,03,58,11.80
2021,08,07,03,59,13.60
2021,08,07,04,00,10.20
2021,08,07,04,01,9.10
2021,08,07,04,02,9.70
2021,08,07,04,03,10.30
2021,08,07,04,04,11.00
2021,08,07,04,05,12.00
2021,08,07,04,06,11.90
2021,08,07,04,07,11.60
2021,08,07,04,08,9.90
2021,08,07,04,09,10.30
2021,08,07,04,10,10.00
2021,08,07,04,11,10.60
2021,08,07,04,12,7.30
2021,08,07,04,13,8.20
2021,08,07,04,14,7.60
2021,08,07,04,15,8.20
2021,08,07,04,16,7.00
2021,08,07,04,17,6.90
2021,08,07,04,18,7.60
2021,08,07,04,19,5.10
2021,08,07,04,20,4.60
2021,08,07,04,21,5.80
2021,08,07,04,22,6.80
2021,08,07,04,23,6.70
2021,08,07,04,24,7.20
2021,08,07,04,25,5.10
2021,08,07,04,26,5.90
2021,08,07,04,27,5.10
2021,08,07,04,28,5.80
2021,08,07,04,29,5.50
2021,08,07,04,30,5.70
2021,08,07,04,31,5.20
2021,08,07,04,32,7.10
2021,08,07,04,33,7.80
2021,08,07,04,34,6.00
2021,08,07,04,35,5.60
2021,08,07,04,36,6.00
2021,08,07,04,37,5.70
2021,08,07,04,38,6.60
2021,08,07,04,39,6.60
2021,08,07,04,40,7.30
2021,08,07,04,41,8.20
2021,08,07,04,42,7.80
2021,08,07,04,43,8.50
2021,08,07,04,44,6.10
2021,08,07,04,45,6.40
2021,08,07,04,46,8.00
2021,08,07,04,47,8.30
2021,08,07,04,48,8.60
2021,08,07,04,49,9.30
2021,08,07,04,50,9.60
2021,08,07,04,51,9.10
2021,08,07,04,52,10.10
2021,08,07,04,53,12.20
2021,08,07,04,54,12.10
2021,08,07,04,55,12.30
2021,08,07,04,56,10.70
2021,08,07,04,57,10.60
2021,08,07,04,58,11.80
2021,08,07,04,59,10.10
2021,08,07,05,00,9.90
2021,08,07,05,01,8.60
2021,08,07,05,02,7.70
2021,08,07,05,03,9.40
2021,08,07,05,04,8.10
2021,08,07,05,05,8.10
2021,08,07,05,06,7.50
2021,08,07,05,07,7.20
2021,08,07,05,08,7.60
2021,08,07,05,09,9.70
2021,08,07,05,10,8.30
2021,08,07,05,11,6.60
2021,08,07,05,12,7.50
2021,08,07,05,13,7.00
2021,08,07,05,14,6.90
2021,08,07,05,15,4.70
2021,08,07,05,16,7.00
2021,08,07,05,17,8.30
2021,08,07,05,18,8.10
2021,08,07,05,19,8.70
2021,08,07,05,20,8.20
2021,08,07,05,21,8.20
2021,08,07,05,22,9.30
2021,08,07,05,23,10.00
2021,08,07,05,24,9.00
2021,08,07,05,25,6.90
2021,08,07,05,26,5.10
2021,08,07,05,27,6.40
2021,08,07,05,28,8.60
2021,08,07,05,29,6.80
2021,08,07,05,30,8.40
2021,08,07,05,31,8.40
2021,08,07,05,32,9.70
2021,08,07,05,33,10.10
2021,08,07,05,34,8.60
2021,08,07,05,35,7.50
2021,08,07,05,36,9.00
2021,08,07,05,37,9.00
2021,08,07,05,38,8.20
2021,08,07,05,39,9.20
2021,08,07,05,40,9.00
2021,08,07,05,41,9.80
2021,08,07,05,42,9.60
2021,08,07,05,43,7.90
2021,08,07,05,44,5.30
2021,08,07,05,45,4.30
2021,08,07,05,46,5.80
2021,08,07,05,47,4.20
2021,08,07,05,48,3.50
2021,08,07,05,49,4.00
2021,08,07,05,50,5.20
2021,08,07,05,51,5.20
2021,08,07,05,52,3.30
2021,08,07,05,53,1.70
2021,08,07,05,54,4.10
2021,08,07,05,55,3.60
2021,08,07,05,56,5.80
2021,08,07,05,57,5.20
2021,08,07,05,58,6.80
2021,08,07,05,59,8.30
2021,08,07,06,00,8.00
2021,08,07,06,01,6.40
2021,08,07,06,02,6.80
2021,08,07,06,03,7.70
2021,08,07,06,04,6.10
2021,08,07,06,05,6.60
2021,08,07,06,06,6.90
2021,08,07,06,07,6.40
2021,08,07,06,08,6.20
2021,08,07,06,09,4.80
2021,08,07,06,10,6.00
2021,08,07,06,11,5.70
2021,08,07,06,12,5.70
2021,08,07,06,13,5.70
2021,08,07,06,14,9.30
2021,08,07,06,15,10.00
2021,08,07,06,16,11.20
2021,08,07,06,17,11.30
2021,08,07,06,18,12.20
2021,08,07,06,19,12.60
2021,08,07,06,20,10.10
2021,08,07,06,21,10.20
2021,08,07,06,22,8.20
2021,08,07,06,23,7.70
2021,08,07,06,24,7.60
2021,08,07,06,25,8.60
2021,08,07,06,26,7.30
2021,08,07,06,27,9.40
2021,08,07,06,28,7.40
2021,08,07,06,29,10.10
2021,08,07,06,30,10.40
2021,08,07,06,31,8.80
2021,08,07,06,32,7.90
2021,08,07,06,33,10.70
2021,08,07,06,34,7.20
2021,08,07,06,35,8.80
2021,08,07,06,36,8.60
2021,08,07,06,37,6.40
2021,08,07,06,38,9.90
2021,08,07,06,39,6.90
2021,08,07,06,40,8.90
2021,08,07,06,41,7.40
2021,08,07,06,42,7.70
2021,08,07,06,43,7.50
2021,08,07,06,44,5.00
2021,08,07,06,45,8.00
2021,08,07,06,46,6.70
2021,08,07,06,47,9.60
2021,08,07,06,48,9.40
2021,08,07,06,49,4.60
2021,08,07,06,50,3.00
2021,08,07,06,51,4.30
2021,08,07,06,52,7.30
2021,08,07,06,53,6.60
2021,08,07,06,54,7.00
2021,08,07,06,55,5.70
2021,08,07,06,56,8.90
2021,08,07,06,57,8.50
2021,08,07,06,58,9.10
2021,08,07,06,59,10.30
2021,08,07,07,00,8.30
2021,08,07,07,01,7.80
2021,08,07,07,02,8.80
2021,08,07,07,03,11.50
2021,08,07,07,04,8.50
2021,08,07,07,05,10.00
2021,08,07,07,06,10.20
2021,08,07,07,07,10.60
2021,08,07,07,08,10.00
2021,08,07,07,09,10.50
2021,08,07,07,10,10.70
2021,08,07,07,11,9.10
2021,08,07,07,12,9.80
2021,08,07,07,13,9.30
2021,08,07,07,14,11.40
2021,08,07,07,15,10.20
2021,08,07,07,16,8.90
2021,08,07,07,17,11.30
2021,08,07,07,18,12.60
2021,08,07,07,19,10.50
2021,08,07,07,20,11.40
2021,08,07,07,21,12.20
2021,08,07,07,22,14.00
2021,08,07,07,23,14.70
2021,08,07,07,24,14.20
2021,08,07,07,25,12.70
2021,08,07,07,26,11.30
2021,08,07,07,27,10.10
2021,08,07,07,28,10.20
2021,08,07,07,29,11.90
2021,08,07,07,30,10.70
2021,08,07,07,31,8.00
2021,08,07,07,32,7.80
2021,08,07,07,33,8.60
2021,08,07,07,34,7.60
2021,08,07,07,35,9.00
2021,08,07,07,36,7.10
2021,08,07,07,37,7.40
2021,08,07,07,38,5.70
2021,08,07,07,39,10.00
2021,08,07,07,40,9.00
2021,08,07,07,41,7.20
2021,08,07,07,42,9.80
2021,08,07,07,43,10.50
2021,08,07,07,44,8.10
2021,08,07,07,45,9.10
2021,08,07,07,46,7.70
2021,08,07,07,47,10.40
2021,08,07,07,48,9.50
2021,08,07,07,49,8.20
2021,08,07,07,50,8.30
2021,08,07,07,51,6.10
2021,08,07,07,52,7.70
2021,08,07,07,53,8.00
2021,08,07,07,54,5.90
2021,08,07,07,55,5.80
2021,08,07,07,56,7.10
2021,08,07,07,57,4.40
2021,08,07,07,58,9.20
2021,08,07,07,59,8.00
2021,08,07,08,00,6.20
2021,08,07,08,01,5.10
2021,08,07,08,02,4.90
2021,08,07,08,03,5.20
2021,08,07,08,04,7.00
2021,08,07,08,05,5.90
2021,08,07,08,06,6.40
2021,08,07,08,07,5.20
2021,08,07,08,08,4.20
2021,08,07,08,09,4.90
2021,08,07,08,10,8.20
2021,08,07,08,11,5.80
2021,08,07,08,12,3.70
2021,08,07,08,13,3.70
2021,08,07,08,14,4.80
2021,08,07,08,15,4.00
2021,08,07,08,16,3.80
2021,08,07,08,17,4.00
2021,08,07,08,18,4.10
2021,08,07,08,19,7.50
2021,08,07,08,20,7.30
2021,08,07,08,21,5.90
2021,08,07,08,22,7.60
2021,08,07,08,23,5.70
2021,08,07,08,24,8.40
2021,08,07,08,25,5.80
2021,08,07,08,26,7.90
2021,08,07,08,27,7.90
2021,08,07,08,28,4.70
2021,08,07,08,29,8.10
2021,08,07,08,30,8.70
2021,08,07,08,31,7.60
2021,08,07,08,32,5.60
2021,08,07,08,33,5.50
2021,08,07,08,34,5.90
2021,08,07,08,35,4.50
2021,08,07,08,36,4.10
2021,08,07,08,37,7.00
2021,08,07,08,38,8.20
2021,08,07,08,39,9.20
2021,08,07,08,40,9.10
2021,08,07,08,41,4.90
2021,08,07,08,42,4.50
2021,08,07,08,43,5.60
2021,08,07,08,44,5.50
2021,08,07,08,45,6.50
2021,08,07,08,46,7.20
2021,08,07,08,47,7.60
2021,08,07,08,48,9.70
2021,08,07,08,49,9.10
2021,08,07,08,50,9.70
2021,08,07,08,51,11.50
2021,08,07,08,52,12.60
2021,08,07,08,53,11.40
2021,08,07,08,54,12.90
2021,08,07,08,55,14.10
2021,08,07,08,56,10.80
2021,08,07,08,57,13.40
2021,08,07,08,58,13.40
2021,08,07,08,59,13.90
2021,08,07,09,00,13.60
2021,08,07,09,01,14.00
2021,08,07,09,02,13.80
2021,08,07,09,03,14.50
2021,08,07,09,04,11.20
2021,08,07,09,05,10.90
2021,08,07,09,06,10.90
2021,08,07,09,07,11.30
2021,08,07,09,08,13.60
2021,08,07,09,09,11.10
2021,08,07,09,10,12.50
2021,08,07,09,11,12.00
2021,08,07,09,12,12.90
2021,08,07,09,13,12.50
2021,08,07,09,14,11.70
2021,08,07,09,15,11.70
2021,08,07,09,16,9.90
2021,08,07,09,17,13.50
2021,08,07,09,18,12.10
2021,08,07,09,19,13.30
2021,08,07,09,20,13.20
2021,08,07,09,21,12.90
2021,08,07,09,22,15.40
2021,08,07,09,23,11.70
2021,08,07,09,24,13.50
2021,08,07,09,25,13.90
2021,08,07,09,26,14.10
2021,08,07,09,27,15.30
2021,08,07,09,28,15.10
2021,08,07,09,29,13.70
2021,08,07,09,30,12.90
2021,08,07,09,31,9.70
2021,08,07,09,32,11.60
2021,08,07,09,33,12.80
2021,08,07,09,34,15.40
2021,08,07,09,35,13.20
2021,08,07,09,36,12.10
2021,08,07,09,37,11.30
2021,08,07,09,38,13.60
2021,08,07,09,39,14.70
2021,08,07,09,40,13.90
2021,08,07,09,41,15.40
2021,08,07,09,42,9.90
2021,08,07,09,43,11.00
2021,08,07,09,44,13.50
2021,08,07,09,45,15.20
2021,08,07,09,46,16.10
2021,08,07,09,47,14.80
2021,08,07,09,48,14.70
2021,08,07,09,49,17.00
2021,08,07,09,50,19.90
2021,08,07,09,51,16.90
2021,08,07,09,52,17.30
2021,08,07,09,53,17.50
2021,08,07,09,54,20.90
2021,08,07,09,55,21.50
2021,08,07,09,56,17.10
2021,08,07,09,57,19.50
2021,08,07,09,58,18.90
2021,08,07,09,59,20.80
2021,08,07,10,00,19.40
2021,08,07,10,01,21.00
2021,08,07,10,02,20.70
2021,08,07,10,03,22.40
2021,08,07,10,04,20.40
2021,08,07,10,05,22.10
2021,08,07,10,06,21.50
2021,08,07,10,07,21.60
2021,08,07,10,08,20.90
2021,08,07,10,09,21.80
2021,08,07,10,10,17.60
2021,08,07,10,11,19.70
2021,08,07,10,12,17.40
2021,08,07,10,13,17.90
2021,08,07,10,14,20.10
2021,08,07,10,15,20.60
2021,08,07,10,16,20.90
2021,08,07,10,17,19.90
2021,08,07,10,18,18.70
2021,08,07,10,19,17.70
2021,08,07,10,20,21.20
2021,08,07,10,21,19.00
2021,08,07,10,22,20.30
2021,08,07,10,23,19.90
2021,08,07,10,24,15.20
2021,08,07,10,25,20.40
2021,08,07,10,26,20.50
2021,08,07,10,27,22.80
2021,08,07,10,28,21.30
2021,08,07,10,29,21.60
2021,08,07,10,30,21.60
2021,08,07,10,31,20.10
2021,08,07,10,32,16.00
2021,08,07,10,33,19.20
2021,08,07,10,34,24.60
2021,08,07,10,35,20.90
2021,08,07,10,36,20.70
2021,08,07,10,37,14.80
2021,08,07,10,38,20.10
2021,08,07,10,39,18.70
2021,08,07,10,40,16.60
2021,08,07,10,41,19.50
2021,08,07,10,42,16.80
2021,08,07,10,43,18.90
2021,08,07,10,44,18.10
2021,08,07,10,45,20.80
2021,08,07,10,46,17.20
2021,08,07,10,47,20.40
2021,08,07,10,48,23.60
2021,08,07,10,49,23.60
2021,08,07,10,50,19.20
2021,08,07,10,51,18.90
2021,08,07,10,52,19.30
2021,08,07,10,53,21.40
2021,08,07,10,54,20.60
2021,08,07,10,55,20.70
2021,08,07,10,56,23.60
2021,08,07,10,57,22.10
2021,08,07,10,58,23.80
2021,08,07,10,59,27.80
2021,08,07,11,00,26.80
2021,08,07,11,01,24.90
2021,08,07,11,02,24.90
2021,08,07,11,03,25.80
2021,08,07,11,04,23.10
2021,08,07,11,05,22.10
2021,08,07,11,06,23.00
2021,08,07,11,07,25.70
2021,08,07,11,08,26.60
2021,08,07,11,09,25.80
2021,08,07,11,10,22.80
2021,08,07,11,11,22.80
2021,08,07,11,12,24.70
2021,08,07,11,13,22.50
2021,08,07,11,14,24.40
2021,08,07,11,15,26.20
2021,08,07,11,16,23.90
2021,08,07,11,17,23.50
2021,08,07,11,18,26.90
2021,08,07,11,19,27.80
2021,08,07,11,20,26.50
2021,08,07,11,21,26.40
2021,08,07,11,22,26.60
2021,08,07,11,23,22.80
2021,08,07,11,24,25.40
2021,08,07,11,25,24.00
2021,08,07,11,26,23.60
2021,08,07,11,27,25.40
2021,08,07,11,28,22.50
2021,08,07,11,29,26.60
2021,08,07,11,30,23.60
2021,08,07,11,31,24.60
2021,08,07,11,32,20.30
2021,08,07,11,33,22.80
2021,08,07,11,34,18.90
2021,08,07,11,35,22.90
2021,08,07,11,36,23.20
2021,08,07,11,37,21.20
2021,08,07,11,38,21.70
2021,08,07,11,39,22.80
2021,08,07,11,40,24.60
2021,08,07,11,41,25.40
2021,08,07,11,42,25.90
2021,08,07,11,43,24.70
2021,08,07,11,44,26.00
2021,08,07,11,45,24.20
2021,08,07,11,46,23.80
2021,08,07,11,47,25.80
2021,08,07,11,48,23.00
2021,08,07,11,49,24.10
2021,08,07,11,50,19.50
2021,08,07,11,51,21.20
2021,08,07,11,52,22.50
2021,08,07,11,53,22.00
2021,08,07,11,54,22.70
2021,08,07,11,55,25.00
2021,08,07,11,56,25.50
2021,08,07,11,57,25.80
2021,08,07,11,58,27.70
2021,08,07,11,59,25.90
2021,08,07,12,00,26.30
2021,08,07,12,01,24.80
2021,08,07,12,02,25.50
2021,08,07,12,03,23.70
2021,08,07,12,04,23.30
2021,08,07,12,05,21.80
2021,08,07,12,06,22.50
2021,08,07,12,07,19.80
2021,08,07,12,08,22.60
2021,08,07,12,09,23.80
2021,08,07,12,10,23.00
2021,08,07,12,11,22.60
2021,08,07,12,12,20.10
2021,08,07,12,13,23.60
2021,08,07,12,14,21.20
2021,08,07,12,15,21.40
2021,08,07,12,16,21.60
2021,08,07,12,17,22.10
2021,08,07,12,18,21.50
2021,08,07,12,19,22.90
2021,08,07,12,20,21.40
2021,08,07,12,21,21.80
2021,08,07,12,22,20.00
2021,08,07,12,23,22.80
2021,08,07,12,24,18.70
2021,08,07,12,25,18.40
2021,08,07,12,26,20.90
2021,08,07,12,27,17.80
2021,08,07,12,28,18.20
2021,08,07,12,29,19.00
2021,08,07,12,30,22.70
2021,08,07,12,31,21.60
2021,08,07,12,32,23.40
2021,08,07,12,33,23.50
2021,08,07,12,34,23.10
2021,08,07,12,35,23.90
2021,08,07,12,36,23.20
2021,08,07,12,37,22.00
2021,08,07,12,38,21.20
2021,08,07,12,39,21.30
2021,08,07,12,40,24.70
2021,08,07,12,41,23.40
2021,08,07,12,42,25.00
2021,08,07,12,43,25.50
2021,08,07,12,44,23.00
2021,08,07,12,45,24.10
2021,08,07,12,46,21.80
2021,08,07,12,47,22.90
2021,08,07,12,48,22.90
2021,08,07,12,49,21.30
2021,08,07,12,50,20.00
2021,08,07,12,51,21.50
2021,08,07,12,52,19.10
2021,08,07,12,53,19.40
2021,08,07,12,54,21.30
2021,08,07,12,55,20.70
2021,08,07,12,56,19.40
2021,08,07,12,57,19.00
2021,08,07,12,58,20.00
2021,08,07,12,59,20.60
2021,08,07,13,00,20.10
2021,08,07,13,01,20.30
2021,08,07,13,02,24.60
2021,08,07,13,03,22.80
2021,08,07,13,04,21.70
2021,08,07,13,05,20.10
2021,08,07,13,06,19.50
2021,08,07,13,07,21.70
2021,08,07,13,08,18.90
2021,08,07,13,09,21.30
2021,08,07,13,10,21.40
2021,08,07,13,11,19.50
2021,08,07,13,12,17.90
2021,08,07,13,13,19.40
2021,08,07,13,14,19.80
2021,08,07,13,15,19.60
2021,08,07,13,16,19.40
2021,08,07,13,17,18.50
2021,08,07,13,18,20.10
2021,08,07,13,19,18.10
2021,08,07,13,20,16.60
2021,08,07,13,21,15.90
2021,08,07,13,22,13.80
2021,08,07,13,23,16.60
2021,08,07,13,24,17.50
2021,08,07,13,25,19.00
2021,08,07,13,26,22.80
2021,08,07,13,27,20.60
2021,08,07,13,28,18.50
2021,08,07,13,29,21.10
2021,08,07,13,30,20.50
2021,08,07,13,31,21.00
2021,08,07,13,32,23.30
2021,08,07,13,33,22.10
2021,08,07,13,34,21.50
2021,08,07,13,35,21.10
2021,08,07,13,36,19.30
2021,08,07,13,37,21.60
2021,08,07,13,38,20.20
2021,08,07,13,39,20.60
2021,08,07,13,40,19.90
2021,08,07,13,41,19.50
2021,08,07,13,42,17.90
2021,08,07,13,43,16.00
2021,08,07,13,44,18.40
2021,08,07,13,45,20.20
2021,08,07,13,46,21.00
2021,08,07,13,47,20.10
2021,08,07,13,48,21.80
2021,08,07,13,49,21.90
2021,08,07,13,50,20.50
2021,08,07,13,51,18.30
2021,08,07,13,52,19.30
2021,08,07,13,53,15.50
2021,08,07,13,54,19.40
2021,08,07,13,55,22.60
2021,08,07,13,56,20.30
2021,08,07,13,57,20.30
2021,08,07,13,58,22.50
2021,08,07,13,59,26.40
2021,08,07,14,00,26.00
2021,08,07,14,01,22.40
2021,08,07,14,02,18.80
2021,08,07,14,03,19.10
2021,08,07,14,04,21.90
2021,08,07,14,05,22.80
2021,08,07,14,06,26.10
2021,08,07,14,07,25.10
2021,08,07,14,08,25.00
2021,08,07,14,09,26.50
2021,08,07,14,10,23.50
2021,08,07,14,11,24.20
2021,08,07,14,12,23.70
2021,08,07,14,13,24.10
2021,08,07,14,14,21.20
2021,08,07,14,15,18.40
2021,08,07,14,16,22.80
2021,08,07,14,17,21.10
2021,08,07,14,18,21.80
2021,08,07,14,19,22.40
2021,08,07,14,20,21.80
2021,08,07,14,21,22.00
2021,08,07,14,22,20.70
2021,08,07,14,23,23.50
2021,08,07,14,24,21.00
2021,08,07,14,25,20.70
2021,08,07,14,26,23.10
2021,08,07,14,27,19.40
2021,08,07,14,28,18.90
2021,08,07,14,29,18.70
2021,08,07,14,30,16.90
2021,08,07,14,31,17.50
2021,08,07,14,32,18.20
2021,08,07,14,33,19.90
2021,08,07,14,34,20.70
2021,08,07,14,35,20.30
2021,08,07,14,36,17.10
2021,08,07,14,37,17.60
2021,08,07,14,38,19.40
2021,08,07,14,39,20.60
2021,08,07,14,40,16.80
2021,08,07,14,41,19.90
2021,08,07,14,42,21.00
2021,08,07,14,43,17.20
2021,08,07,14,44,15.00
2021,08,07,14,45,18.10
2021,08,07,14,46,19.10
2021,08,07,14,47,18.90
2021,08,07,14,48,20.20
2021,08,07,14,49,20.20
2021,08,07,14,50,17.10
2021,08,07,14,51,16.40
2021,08,07,14,52,19.70
2021,08,07,14,53,18.90
2021,08,07,14,54,20.20
2021,08,07,14,55,19.30
2021,08,07,14,56,21.60
2021,08,07,14,57,18.50
2021,08,07,14,58,17.30
2021,08,07,14,59,21.10
2021,08,07,15,00,20.00
2021,08,07,15,01,21.50
2021,08,07,15,02,21.80
2021,08,07,15,03,20.60
2021,08,07,15,04,20.70
2021,08,07,15,05,20.00
2021,08,07,15,06,19.40
2021,08,07,15,07,15.20
2021,08,07,15,08,18.20
2021,08,07,15,09,17.80
2021,08,07,15,10,19.20
2021,08,07,15,11,19.10
2021,08,07,15,12,20.60
2021,08,07,15,13,20.90
2021,08,07,15,14,19.70
2021,08,07,15,15,16.50
2021,08,07,15,16,20.40
2021,08,07,15,17,21.80
2021,08,07,15,18,21.20
2021,08,07,15,19,19.50
2021,08,07,15,20,18.70
2021,08,07,15,21,16.00
2021,08,07,15,22,14.10
2021,08,07,15,23,16.10
2021,08,07,15,24,19.10
2021,08,07,15,25,21.30
2021,08,07,15,26,18.30
2021,08,07,15,27,13.90
2021,08,07,15,28,14.10
2021,08,07,15,29,15.50
2021,08,07,15,30,15.90
2021,08,07,15,31,15.70
2021,08,07,15,32,15.90
2021,08,07,15,33,12.10
2021,08,07,15,34,11.70
2021,08,07,15,35,11.10
2021,08,07,15,36,14.20
2021,08,07,15,37,13.90
2021,08,07,15,38,11.00
2021,08,07,15,39,14.00
2021,08,07,15,40,14.20
2021,08,07,15,41,15.30
2021,08,07,15,42,17.10
2021,08,07,15,43,13.70
2021,08,07,15,44,13.50
2021,08,07,15,45,14.30
2021,08,07,15,46,14.60
2021,08,07,15,47,12.20
2021,08,07,15,48,9.80
2021,08,07,15,49,9.80
2021,08,07,15,50,7.50
2021,08,07,15,51,6.50
2021,08,07,15,52,9.50
2021,08,07,15,53,11.10
2021,08,07,15,54,14.70
2021,08,07,15,55,9.90
2021,08,07,15,56,9.90
2021,08,07,15,57,14.60
2021,08,07,15,58,13.70
2021,08,07,15,59,11.50
2021,08,07,16,00,10.80
2021,08,07,16,01,11.70
2021,08,07,16,02,12.20
2021,08,07,16,03,11.10
2021,08,07,16,04,8.00
2021,08,07,16,05,10.20
2021,08,07,16,06,10.70
2021,08,07,16,07,10.10
2021,08,07,16,08,10.30
2021,08,07,16,09,8.70
2021,08,07,16,10,9.20
2021,08,07,16,11,10.60
2021,08,07,16,12,10.90
2021,08,07,16,13,9.40
2021,08,07,16,14,7.10
2021,08,07,16,15,6.00
2021,08,07,16,16,6.40
2021,08,07,16,17,6.40
2021,08,07,16,18,6.70
2021,08,07,16,19,6.00
2021,08,07,16,20,6.00
2021,08,07,16,21,6.30
2021,08,07,16,22,5.40
2021,08,07,16,23,5.50
2021,08,07,16,24,6.10
2021,08,07,16,25,6.40
2021,08,07,16,26,6.10
2021,08,07,16,27,5.10
2021,08,07,16,28,3.60
2021,08,07,16,29,1.90
2021,08,07,16,30,2.50
2021,08,07,16,31,1.70
2021,08,07,16,32,0.40
2021,08,07,16,33,3.20
2021,08,07,16,34,6.40
2021,08,07,16,35,3.80
2021,08,07,16,36,3.70
2021,08,07,16,37,3.20
2021,08,07,16,38,4.30
2021,08,07,16,39,8.50
2021,08,07,16,40,6.00
2021,08,07,16,41,4.00
2021,08,07,16,42,9.10
2021,08,07,16,43,2.20
2021,08,07,16,44,4.60
2021,08,07,16,45,6.20
2021,08,07,16,46,5.10
2021,08,07,16,47,6.00
2021,08,07,16,48,4.40
2021,08,07,16,49,6.70
2021,08,07,16,50,3.20
2021,08,07,16,51,7.60
2021,08,07,16,52,12.50
2021,08,07,16,53,7.50
2021,08,07,16,54,6.90
2021,08,07,16,55,5.50
2021,08,07,16,56,4.80
2021,08,07,16,57,6.60
2021,08,07,16,58,4.00
2021,08,07,16,59,8.10
2021,08,07,17,00,6.30
2021,08,07,17,01,8.10
2021,08,07,17,02,6.60
2021,08,07,17,03,10.10
2021,08,07,17,04,6.50
2021,08,07,17,05,8.20
2021,08,07,17,06,5.30
2021,08,07,17,07,9.50
2021,08,07,17,08,10.00
2021,08,07,17,09,9.70
2021,08,07,17,10,5.00
2021,08,07,17,11,5.40
2021,08,07,17,12,9.00
2021,08,07,17,13,11.60
2021,08,07,17,14,7.60
2021,08,07,17,15,6.40
2021,08,07,17,16,5.80
2021,08,07,17,17,12.70
2021,08,07,17,18,9.10
2021,08,07,17,19,7.50
2021,08,07,17,20,13.70
2021,08,07,17,21,18.70
2021,08,07,17,22,14.00
2021,08,07,17,23,8.00
2021,08,07,17,24,8.80
2021,08,07,17,25,7.80
2021,08,07,17,26,14.00
2021,08,07,17,27,11.10
2021,08,07,17,28,11.00
2021,08,07,17,29,7.10
2021,08,07,17,30,9.70
2021,08,07,17,31,13.10
2021,08,07,17,32,8.60
2021,08,07,17,33,10.40
2021,08,07,17,34,13.30
2021,08,07,17,35,11.00
2021,08,07,17,36,12.90
2021,08,07,17,37,8.90
2021,08,07,17,38,7.30
2021,08,07,17,39,8.70
2021,08,07,17,40,14.10
2021,08,07,17,41,12.40